Location: Observatoire
(46.1952°N, 5.3391°E)
Time: 07:28:10
(UTC+02:00)

TIGRISAT - Visible Passes

Search period start: 16 April 2024 00:00
Search period end: 26 April 2024 00:00
Orbit: 594 x 674 km, 97.7° (Epoch: 15 April)

Date Brightness Start Highest point End Pass type
(mag) Time Alt. Az. Time Alt. Az. Time Alt. Az.
16 Apr ? 04:17:43 10° ESE 04:20:35 17° ENE 04:23:25 10° NNE visible
16 Apr ? 05:52:11 10° S 05:56:36 58° W 06:00:57 10° NNW visible
17 Apr ? 04:38:24 10° ESE 04:42:06 26° ENE 04:45:44 10° N visible
17 Apr ? 06:14:19 10° SSW 06:18:23 35° W 06:22:26 10° NNW visible
18 Apr ? 04:59:29 10° SE 05:03:39 41° ENE 05:07:46 10° N visible
19 Apr ? 05:20:52 10° SSE 05:25:17 68° ENE 05:29:37 10° N visible
20 Apr ? 04:08:47 10° E 04:11:03 14° ENE 04:13:17 10° NNE visible
20 Apr ? 05:42:31 10° S 05:46:57 72° WSW 05:51:18 10° NNW visible
21 Apr ? 04:29:09 10° ESE 04:32:29 21° ENE 04:35:46 10° NNE visible
21 Apr ? 06:04:27 10° S 06:08:40 42° W 06:12:48 10° NNW visible
22 Apr ? 04:50:02 10° SE 04:53:59 33° ENE 04:57:51 10° N visible
23 Apr ? 05:11:14 10° SSE 05:15:31 54° ENE 05:19:44 10° N visible
24 Apr ? 04:00:01 10° ENE 04:01:21 11° ENE 04:02:40 10° NE visible
24 Apr ? 05:32:44 10° SSE 05:37:07 89° WSW 05:41:27 10° NNW visible
25 Apr ? 04:19:51 10° ESE 04:22:43 18° ENE 04:25:34 10° NNE visible
25 Apr ? 05:54:29 10° S 05:58:46 53° W 06:02:59 10° NNW visible
